SCP
1 1 0 0 1 1 1 1 1 1 0 0 0 1 1 0 1 1 1 0 0 0 0 0 0 0 0 0 0 0 0 0 0 0 0 0 0 0 0 0 0 0 0
0 0 0 0 1 1 1 1 1 1 1 0 1 1 1 1 0 0 0 0 0 0 0 0 0 0 0 0 0 0 0 0 0 0 0 0 0 0 0 0 0 0 0
0 0 0 1 1 1 1 1 1 1 1 0 1 1 1 1 0 1 0 0 0 0 0 0 0 0 0 0 0 0 0 0 0 0 0 0 0 0 0 0 0 0 0
0 0 0 0 1 1 1 1 1 1 1 1 1 2 2 1 1 0 0 0 0 0 0 0 0 0 0 0 0 0 0 0 0 0 0 0 0 0 0 0 0 0 0
0 0 0 0 0 1 0 1 1 2 2 2 1 2 1 0 0 0 1 1 1 0 0 0 0 0 0 0 0 0 0 0 0 0 0 0 0 0 0 0 0 0 0
0 0 0 0 0 0 0 1 2 3 2 1 2 2 1 1 1 1 0 0 0 0 0 0 0 0 0 0 0 0 0 0 0 0 0 0 0 0 0 0 0 0 0
0 0 0 0 0 0 0 1 2 2 2 2 1 1 1 1 1 0 0 0 0 0 0 0 0 0 0 0 0 0 0 0 0 0 0 0 0 0 0 0 0 0 0
0 0 0 0 0 0 1 1 1 1 1 1 1 1 2 1 0 1 1 0 0 0 0 0 0 0 0 0 0 0 0 0 0 0 0 0 0 0 0 0 0 0 0
0 0 0 0 0 0 1 1 0 0 0 1 1 2 1 0 1 1 1 0 0 0 0 0 0 0 0 0 0 0 0 0 0 0 0 0 0 0 0 0 0 0 0
0 0 0 0 0 0 0 0 0 0 0 1 1 2 1 0 1 0 0 0 0 0 0 0 0 0 0 0 0 0 0 0 0 0 0 0 0 0 0 0 0 0 0
0 0 0 0 0 0 0 0 0 0 0 0 2 0 0 1 1 0 0 0 0 0 0 0 0 0 0 0 0 0 0 0 0 0 0 0 0 0 0 0 0 0 0
0 0 0 0 0 0 0 0 1 0 0 1 0 0 0 0 1 0 0 0 0 0 0 0 0 0 0 0 0 0 0 0 0 0 0 0 0 0 0 0 -0 -0 0
0 0 0 0 0 0 0 0 0 1 0 0 0 0 1 0 0 0 0 0 0 0 0 0 0 0 0 -0 0 -0 0 -0 0 0 -0 -0 -0 -0 -0 0 0 0 0
0 0 0 0 0 0 1 1 1 1 0 0 0 0 0 0 0 0 0 0 0 0 0 0 0 -0 -0 -0 -0 -0 0 0 -0 -0 -0 -0 0 -0 -0 0 -0 0 0
0 0 0 0 0 1 0 0 0 0 0 0 0 0 0 0 0 0 0 0 0 0 0 0 -0 -0 0 0 -0 -0 0 -0 0 0 0 0 0 -0 0 0 0 0 0
0 0 0 0 0 0 0 0 0 0 0 0 0 0 0 0 0 0 0 0 0 0 0 -0 -0 0 0 -0 -0 0 0 0 0 0 0 0 0 0 0 0 -0 0 0
0 0 0 0 0 0 0 0 0 0 0 0 0 0 0 0 0 0 0 0 0 -0 0 0 0 0 0 -0 0 0 0 0 0 0 0 0 0 0 -0 0 0 0 0
0 0 0 0 0 0 0 0 0 0 0 0 0 0 0 0 0 0 0 0 0 0 0 0 0 -0 -0 0 0 0 0 0 0 -0 0 -0 0 0 0 0 0 0 0
0 0 0 0 0 0 0 0 0 0 0 0 0 0 0 0 0 0 0 0 0 0 0 0 0 -0 0 0 0 -0 0 0 0 -0 -0 0 -0 0 0 0 0 0 0
0 0 0 0 0 0 0 0 0 0 0 0 0 0 0 0 0 0 0 0 0 0 0 0 -0 0 0 -0 0 -0 0 -0 -0 0 -0 0 -0 -0 0 0 0 0 0
0 0 0 0 0 0 0 0 0 0 0 0 0 0 0 0 0 0 0 0 0 0 0 0 -0 0 0 -0 -0 -0 0 0 0 0 -0 -0 -0 0 -0 -0 -0 -0 -0
0 0 0 0 0 0 0 0 0 0 0 0 0 0 0 0 0 0 0 0 0 0 0 0 0 -0 -0 -0 -0 -0 -0 -0 -0 0 -0 0 0 0 0 0 -0 -0 0
0 0 0 0 0 0 0 0 0 0 0 0 0 0 0 0 0 0 0 0 0 0 0 0 0 0 -0 0 0 -0 -0 -0 -0 -0 0 0 -0 -0 0 -0 -0 0 0
0 0 0 0 0 0 0 0 0 0 0 0 0 0 0 0 0 0 0 0 -0 0 0 0 0 0 0 0 0 0 0 0 0 0 0 0 0 0 -0 -0 0 0 -0
0 0 0 0 0 0 0 0 0 0 0 0 0 0 0 0 0 0 0 0 -0 -0 0 0 0 0 0 0 0 0 0 0 0 0 0 0 0 0 0 0 0 -0 -0
0 0 0 0 0 0 0 0 0 0 0 0 0 0 0 0 0 0 0 0 0 0 0 0 0 0 0 0 0 0 0 0 0 0 0 0 -0 0 0 0 0 0 0
Wind_Speed_500mb
20 21 21 17 12 9 7 8 9 12 10 9 12 20 21 25 25 27 24 24 26 30 37 38 40 44 46 48 53 50 42 42 39 43 40 40 38 40 39 34 33 28 27
16 18 18 16 12 8 8 10 9 12 12 11 13 18 20 23 26 27 24 39 38 34 39 39 43 44 49 49 47 41 45 48 40 41 45 41 32 26 17 27 24 29 26
17 17 16 13 12 11 9 9 10 11 11 14 13 23 24 27 24 20 29 29 37 36 37 39 39 41 45 43 43 43 39 41 42 36 34 21 18 29 18 16 27 22 27
10 6 5 9 12 13 11 9 9 9 9 16 12 19 23 19 21 30 33 38 35 39 34 38 39 40 36 41 33 30 34 30 34 34 33 33 36 26 30 22 16 23 25
7 1 6 6 6 4 8 10 9 7 13 18 16 13 17 22 25 28 35 41 34 34 41 38 37 39 42 37 41 42 39 36 35 34 38 38 34 33 29 32 26 26 24
5 4 7 8 10 3 8 9 9 8 12 14 16 19 25 30 29 31 39 34 36 39 38 35 32 45 40 42 47 41 42 40 40 42 39 36 38 28 29 29 32 35 27
7 7 9 7 2 7 10 11 10 8 11 12 14 18 25 29 28 32 32 37 40 40 37 35 44 38 43 45 46 41 42 41 44 44 39 40 38 37 42 43 46 38 40
17 7 7 3 13 11 11 10 12 16 18 18 18 16 21 21 28 31 36 38 38 38 35 41 38 43 43 46 40 39 40 40 39 36 34 39 35 36 39 38 41 36 33
9 17 8 6 14 13 11 14 18 19 21 20 19 17 18 33 33 34 37 37 41 38 37 39 40 43 45 40 37 36 39 36 33 31 29 28 27 29 32 31 31 27 20
26 8 11 3 12 16 17 16 19 24 24 24 21 22 30 38 32 35 37 39 38 41 36 38 43 44 43 36 33 34 31 32 26 27 25 26 25 28 24 26 25 26 29
14 11 8 14 13 21 23 29 30 32 32 29 27 37 32 36 35 37 40 39 38 36 37 42 46 46 34 31 32 31 28 26 26 21 17 18 18 20 21 25 25 29 22
18 19 17 19 21 22 28 33 33 34 36 30 37 33 32 31 38 40 38 40 39 40 39 45 48 31 29 27 28 26 21 23 23 23 21 24 21 19 13 11 13 19 21
21 28 28 30 22 30 35 38 38 37 36 41 38 32 31 38 39 37 42 40 39 41 47 45 32 20 23 21 23 20 22 22 22 25 25 24 19 18 19 16 12 17 16
25 31 31 35 39 41 39 41 38 32 35 23 24 32 35 38 37 40 45 37 47 36 41 31 19 17 17 17 20 19 20 22 25 26 25 20 17 15 12 12 17 21 22
33 31 34 37 40 39 40 41 32 25 20 19 27 31 33 35 34 45 43 42 42 36 28 25 16 16 12 14 18 19 21 23 18 21 23 14 12 6 11 20 23 29 27
32 34 35 37 40 41 44 40 29 17 19 23 29 31 33 29 41 42 39 37 33 25 23 19 14 13 12 11 17 21 20 25 25 24 33 29 22 17 23 28 22 23 31
28 31 36 42 45 42 40 30 19 18 23 26 28 30 30 33 38 35 34 36 31 21 18 18 15 15 15 14 18 16 23 32 39 35 32 31 31 35 33 36 32 30 26
30 37 43 46 40 38 30 20 17 20 24 26 27 28 32 33 31 30 33 35 28 20 19 20 22 18 18 16 9 13 18 23 29 31 39 30 28 30 33 32 34 30 29
33 39 43 41 34 31 23 17 18 21 23 25 25 28 32 27 29 27 33 30 24 23 22 21 23 23 22 18 15 25 26 26 29 38 41 38 36 38 40 44 43 37 35
37 42 41 37 31 25 18 16 19 21 23 24 24 27 27 29 26 23 23 21 24 22 19 23 26 25 22 18 14 21 23 23 30 38 45 42 40 36 40 46 47 55 57
39 40 37 35 28 19 14 15 19 21 22 20 21 24 24 29 23 25 20 23 22 22 25 24 26 28 31 27 21 18 26 27 28 30 42 47 45 51 54 62 65 68 69
39 38 38 33 23 16 15 17 19 20 18 19 19 20 24 22 20 20 17 19 20 20 22 22 25 32 36 32 26 24 20 21 29 31 37 38 41 42 40 43 49 53 52
36 36 35 27 18 13 17 17 18 20 20 17 18 19 22 18 20 19 19 18 16 17 20 21 23 32 26 32 38 29 26 21 23 29 36 37 32 30 36 47 46 42 36
33 35 31 22 13 12 16 17 18 18 19 19 19 17 16 15 20 19 19 18 17 15 16 19 21 26 24 26 30 31 31 34 36 31 34 39 28 33 40 36 31 29 28
31 32 27 18 11 13 15 16 17 20 18 18 18 19 15 12 14 17 21 17 16 12 13 17 20 22 17 21 23 23 28 36 39 41 39 38 35 30 30 33 23 27 25
29 29 22 14 10 13 15 15 16 16 15 18 14 21 14 18 10 12 12 20 21 20 16 14 14 17 20 23 26 26 25 27 30 29 30 30 27 24 25 25 27 23 27
Wind_Direction_500mb
169 190 197 201 202 203 223 218 252 246 263 263 278 283 286 306 297 308 295 285 298 300 311 313 306 309 307 301 306 305 297 301 302 303 293 288 281 275 262 260 261 266 271
177 192 196 200 213 225 232 243 249 252 263 255 278 275 283 294 297 292 285 322 311 308 309 301 306 306 305 304 304 300 298 293 302 301 301 294 289 271 265 242 251 271 275
180 183 205 225 232 246 253 258 258 243 259 249 274 298 315 314 305 314 307 301 293 305 301 306 305 303 303 303 298 292 296 295 293 288 287 295 289 315 292 287 292 278 290
194 181 266 236 244 258 252 250 244 240 301 292 276 279 296 310 300 310 306 301 306 300 305 306 304 308 303 304 303 307 299 298 301 293 279 271 279 290 294 275 308 281 280
186 40 183 208 239 245 255 246 221 242 271 284 307 284 293 296 307 306 301 307 320 304 306 304 305 301 308 301 302 298 292 292 291 294 295 283 279 273 273 280 286 289 288
193 225 191 240 222 281 297 246 239 249 283 304 296 304 305 310 311 312 316 313 310 312 305 305 301 307 303 302 307 295 292 293 295 295 286 282 280 278 274 284 287 286 294
271 311 212 161 340 297 294 267 246 277 269 269 270 278 295 307 324 310 311 306 313 309 307 305 306 302 300 309 305 298 297 299 294 293 285 278 278 272 274 274 276 284 286
303 321 330 282 306 326 278 258 281 297 286 280 272 275 287 299 315 305 310 315 314 308 305 310 304 299 305 311 305 305 304 302 298 294 287 283 280 270 272 262 266 272 281
310 292 290 270 302 309 282 279 296 294 283 276 278 294 316 320 312 316 314 312 309 303 308 306 303 307 311 313 308 306 304 305 300 294 289 289 281 273 270 263 255 252 266
304 308 305 282 309 304 294 276 309 301 284 271 276 272 292 306 301 315 316 314 309 302 311 305 311 307 313 312 311 308 307 308 305 302 294 284 279 276 267 257 254 245 247
356 9 0 336 316 315 317 315 308 307 300 293 286 294 312 312 319 318 314 312 302 307 304 308 312 318 313 315 312 312 308 308 307 307 299 292 282 280 258 255 247 235 233
347 333 336 333 316 322 323 323 322 313 313 289 291 304 321 323 313 315 318 301 304 304 310 311 316 307 316 315 321 315 309 305 317 301 296 292 282 274 259 240 224 215 209
18 340 348 337 1 347 330 324 320 318 296 294 299 313 320 322 323 321 308 312 313 317 320 317 306 314 318 327 330 319 319 324 318 305 302 296 286 258 260 239 219 176 177
15 5 351 346 339 337 339 333 332 311 306 315 325 322 326 327 328 312 316 317 321 324 332 334 330 329 333 329 336 340 340 333 322 320 315 311 283 256 226 186 181 160 165
5 353 352 346 335 338 335 335 334 337 336 339 333 332 333 335 317 324 324 324 321 318 332 336 342 354 356 355 357 355 347 353 2 354 3 331 272 183 184 171 163 162 172
0 352 345 343 339 335 335 337 338 350 358 347 342 342 343 339 336 339 343 341 331 336 336 347 11 14 2 32 10 5 21 27 37 21 40 44 71 130 140 157 152 157 159
355 350 344 340 335 334 335 337 348 355 355 352 352 351 347 354 353 352 355 359 4 16 34 31 23 42 39 49 27 31 58 48 51 49 46 61 82 112 122 125 133 139 165
352 346 340 336 337 336 336 338 349 353 353 355 359 352 4 4 1 6 17 21 27 45 40 35 55 54 53 40 20 27 40 37 36 64 53 73 85 97 114 129 143 147 152
350 344 339 339 341 338 340 346 354 352 356 3 358 9 5 4 11 12 16 21 44 49 44 42 45 52 54 48 25 43 61 66 61 68 58 83 92 101 112 123 121 121 122
348 345 344 343 342 343 350 356 356 356 6 0 10 12 6 15 9 11 12 25 32 42 47 50 56 47 41 56 50 53 63 75 68 70 72 80 86 95 112 116 116 116 119
346 345 346 346 343 346 359 5 360 5 4 0 18 12 20 34 17 33 42 28 37 47 53 54 53 59 46 41 44 70 88 75 78 82 86 90 93 95 98 109 112 114 121
346 347 346 347 347 358 3 6 4 8 350 13 18 13 23 27 18 18 21 31 45 43 50 56 61 55 55 51 49 67 94 90 90 103 110 108 109 113 109 114 112 114 122
346 348 349 350 354 12 14 9 6 7 352 16 17 9 20 17 29 17 26 35 49 55 46 52 57 51 51 58 58 71 71 81 102 118 128 121 122 111 116 118 109 111 119
346 347 348 353 358 9 6 11 10 346 3 25 14 13 16 31 31 22 22 30 27 51 50 46 51 57 41 76 72 60 79 84 86 104 125 131 122 128 116 123 118 127 116
341 345 346 352 1 358 3 8 10 340 6 27 18 4 1 22 4 26 44 55 48 60 64 69 39 54 57 83 82 90 99 99 92 102 112 130 145 124 115 142 135 127 121
336 341 343 344 347 350 355 3 1 2 18 20 17 15 21 7 14 13 54 59 57 56 49 58 81 48 76 93 94 95 102 106 110 107 103 114 129 137 133 128 141 140 128
Wind_Speed_850mb
20 21 21 17 12 9 7 8 9 12 10 9 12 20 21 25 25 27 24 24 26 30 37 38 40 44 46 48 53 50 42 42 39 43 40 40 38 40 39 34 33 28 27
16 18 18 16 12 8 8 10 9 12 12 11 13 18 20 23 26 27 24 39 38 34 39 39 43 44 49 49 47 41 45 48 40 41 45 41 32 26 17 27 24 29 26
17 17 16 13 12 11 9 9 10 11 11 14 13 23 24 27 24 20 29 29 37 36 37 39 39 41 45 43 43 43 39 41 42 36 34 21 18 29 18 16 27 22 27
10 6 5 9 12 13 11 9 9 9 9 16 12 19 23 19 21 30 33 38 35 39 34 38 39 40 36 41 33 30 34 30 34 34 33 33 36 26 30 22 16 23 25
7 1 6 6 6 4 8 10 9 7 13 18 16 13 17 22 25 28 35 41 34 34 41 38 37 39 42 37 41 42 39 36 35 34 38 38 34 33 29 32 26 26 24
5 4 7 8 10 3 8 9 9 8 12 14 16 19 25 30 29 31 39 34 36 39 38 35 32 45 40 42 47 41 42 40 40 42 39 36 38 28 29 29 32 35 27
7 7 9 7 2 7 10 11 10 8 11 12 14 18 25 29 28 32 32 37 40 40 37 35 44 38 43 45 46 41 42 41 44 44 39 40 38 37 42 43 46 38 40
17 7 7 3 13 11 11 10 12 16 18 18 18 16 21 21 28 31 36 38 38 38 35 41 38 43 43 46 40 39 40 40 39 36 34 39 35 36 39 38 41 36 33
9 17 8 6 14 13 11 14 18 19 21 20 19 17 18 33 33 34 37 37 41 38 37 39 40 43 45 40 37 36 39 36 33 31 29 28 27 29 32 31 31 27 20
26 8 11 3 12 16 17 16 19 24 24 24 21 22 30 38 32 35 37 39 38 41 36 38 43 44 43 36 33 34 31 32 26 27 25 26 25 28 24 26 25 26 29
14 11 8 14 13 21 23 29 30 32 32 29 27 37 32 36 35 37 40 39 38 36 37 42 46 46 34 31 32 31 28 26 26 21 17 18 18 20 21 25 25 29 22
18 19 17 19 21 22 28 33 33 34 36 30 37 33 32 31 38 40 38 40 39 40 39 45 48 31 29 27 28 26 21 23 23 23 21 24 21 19 13 11 13 19 21
21 28 28 30 22 30 35 38 38 37 36 41 38 32 31 38 39 37 42 40 39 41 47 45 32 20 23 21 23 20 22 22 22 25 25 24 19 18 19 16 12 17 16
25 31 31 35 39 41 39 41 38 32 35 23 24 32 35 38 37 40 45 37 47 36 41 31 19 17 17 17 20 19 20 22 25 26 25 20 17 15 12 12 17 21 22
33 31 34 37 40 39 40 41 32 25 20 19 27 31 33 35 34 45 43 42 42 36 28 25 16 16 12 14 18 19 21 23 18 21 23 14 12 6 11 20 23 29 27
32 34 35 37 40 41 44 40 29 17 19 23 29 31 33 29 41 42 39 37 33 25 23 19 14 13 12 11 17 21 20 25 25 24 33 29 22 17 23 28 22 23 31
28 31 36 42 45 42 40 30 19 18 23 26 28 30 30 33 38 35 34 36 31 21 18 18 15 15 15 14 18 16 23 32 39 35 32 31 31 35 33 36 32 30 26
30 37 43 46 40 38 30 20 17 20 24 26 27 28 32 33 31 30 33 35 28 20 19 20 22 18 18 16 9 13 18 23 29 31 39 30 28 30 33 32 34 30 29
33 39 43 41 34 31 23 17 18 21 23 25 25 28 32 27 29 27 33 30 24 23 22 21 23 23 22 18 15 25 26 26 29 38 41 38 36 38 40 44 43 37 35
37 42 41 37 31 25 18 16 19 21 23 24 24 27 27 29 26 23 23 21 24 22 19 23 26 25 22 18 14 21 23 23 30 38 45 42 40 36 40 46 47 55 57
39 40 37 35 28 19 14 15 19 21 22 20 21 24 24 29 23 25 20 23 22 22 25 24 26 28 31 27 21 18 26 27 28 30 42 47 45 51 54 62 65 68 69
39 38 38 33 23 16 15 17 19 20 18 19 19 20 24 22 20 20 17 19 20 20 22 22 25 32 36 32 26 24 20 21 29 31 37 38 41 42 40 43 49 53 52
36 36 35 27 18 13 17 17 18 20 20 17 18 19 22 18 20 19 19 18 16 17 20 21 23 32 26 32 38 29 26 21 23 29 36 37 32 30 36 47 46 42 36
33 35 31 22 13 12 16 17 18 18 19 19 19 17 16 15 20 19 19 18 17 15 16 19 21 26 24 26 30 31 31 34 36 31 34 39 28 33 40 36 31 29 28
31 32 27 18 11 13 15 16 17 20 18 18 18 19 15 12 14 17 21 17 16 12 13 17 20 22 17 21 23 23 28 36 39 41 39 38 35 30 30 33 23 27 25
29 29 22 14 10 13 15 15 16 16 15 18 14 21 14 18 10 12 12 20 21 20 16 14 14 17 20 23 26 26 25 27 30 29 30 30 27 24 25 25 27 23 27
Wind_Direction_850mb
169 190 197 201 202 203 223 218 252 246 263 263 278 283 286 306 297 308 295 285 298 300 311 313 306 309 307 301 306 305 297 301 302 303 293 288 281 275 262 260 261 266 271
177 192 196 200 213 225 232 243 249 252 263 255 278 275 283 294 297 292 285 322 311 308 309 301 306 306 305 304 304 300 298 293 302 301 301 294 289 271 265 242 251 271 275
180 183 205 225 232 246 253 258 258 243 259 249 274 298 315 314 305 314 307 301 293 305 301 306 305 303 303 303 298 292 296 295 293 288 287 295 289 315 292 287 292 278 290
194 181 266 236 244 258 252 250 244 240 301 292 276 279 296 310 300 310 306 301 306 300 305 306 304 308 303 304 303 307 299 298 301 293 279 271 279 290 294 275 308 281 280
186 40 183 208 239 245 255 246 221 242 271 284 307 284 293 296 307 306 301 307 320 304 306 304 305 301 308 301 302 298 292 292 291 294 295 283 279 273 273 280 286 289 288
193 225 191 240 222 281 297 246 239 249 283 304 296 304 305 310 311 312 316 313 310 312 305 305 301 307 303 302 307 295 292 293 295 295 286 282 280 278 274 284 287 286 294
271 311 212 161 340 297 294 267 246 277 269 269 270 278 295 307 324 310 311 306 313 309 307 305 306 302 300 309 305 298 297 299 294 293 285 278 278 272 274 274 276 284 286
303 321 330 282 306 326 278 258 281 297 286 280 272 275 287 299 315 305 310 315 314 308 305 310 304 299 305 311 305 305 304 302 298 294 287 283 280 270 272 262 266 272 281
310 292 290 270 302 309 282 279 296 294 283 276 278 294 316 320 312 316 314 312 309 303 308 306 303 307 311 313 308 306 304 305 300 294 289 289 281 273 270 263 255 252 266
304 308 305 282 309 304 294 276 309 301 284 271 276 272 292 306 301 315 316 314 309 302 311 305 311 307 313 312 311 308 307 308 305 302 294 284 279 276 267 257 254 245 247
356 9 0 336 316 315 317 315 308 307 300 293 286 294 312 312 319 318 314 312 302 307 304 308 312 318 313 315 312 312 308 308 307 307 299 292 282 280 258 255 247 235 233
347 333 336 333 316 322 323 323 322 313 313 289 291 304 321 323 313 315 318 301 304 304 310 311 316 307 316 315 321 315 309 305 317 301 296 292 282 274 259 240 224 215 209
18 340 348 337 1 347 330 324 320 318 296 294 299 313 320 322 323 321 308 312 313 317 320 317 306 314 318 327 330 319 319 324 318 305 302 296 286 258 260 239 219 176 177
15 5 351 346 339 337 339 333 332 311 306 315 325 322 326 327 328 312 316 317 321 324 332 334 330 329 333 329 336 340 340 333 322 320 315 311 283 256 226 186 181 160 165
5 353 352 346 335 338 335 335 334 337 336 339 333 332 333 335 317 324 324 324 321 318 332 336 342 354 356 355 357 355 347 353 2 354 3 331 272 183 184 171 163 162 172
0 352 345 343 339 335 335 337 338 350 358 347 342 342 343 339 336 339 343 341 331 336 336 347 11 14 2 32 10 5 21 27 37 21 40 44 71 130 140 157 152 157 159
355 350 344 340 335 334 335 337 348 355 355 352 352 351 347 354 353 352 355 359 4 16 34 31 23 42 39 49 27 31 58 48 51 49 46 61 82 112 122 125 133 139 165
352 346 340 336 337 336 336 338 349 353 353 355 359 352 4 4 1 6 17 21 27 45 40 35 55 54 53 40 20 27 40 37 36 64 53 73 85 97 114 129 143 147 152
350 344 339 339 341 338 340 346 354 352 356 3 358 9 5 4 11 12 16 21 44 49 44 42 45 52 54 48 25 43 61 66 61 68 58 83 92 101 112 123 121 121 122
348 345 344 343 342 343 350 356 356 356 6 0 10 12 6 15 9 11 12 25 32 42 47 50 56 47 41 56 50 53 63 75 68 70 72 80 86 95 112 116 116 116 119
346 345 346 346 343 346 359 5 360 5 4 0 18 12 20 34 17 33 42 28 37 47 53 54 53 59 46 41 44 70 88 75 78 82 86 90 93 95 98 109 112 114 121
346 347 346 347 347 358 3 6 4 8 350 13 18 13 23 27 18 18 21 31 45 43 50 56 61 55 55 51 49 67 94 90 90 103 110 108 109 113 109 114 112 114 122
346 348 349 350 354 12 14 9 6 7 352 16 17 9 20 17 29 17 26 35 49 55 46 52 57 51 51 58 58 71 71 81 102 118 128 121 122 111 116 118 109 111 119
346 347 348 353 358 9 6 11 10 346 3 25 14 13 16 31 31 22 22 30 27 51 50 46 51 57 41 76 72 60 79 84 86 104 125 131 122 128 116 123 118 127 116
341 345 346 352 1 358 3 8 10 340 6 27 18 4 1 22 4 26 44 55 48 60 64 69 39 54 57 83 82 90 99 99 92 102 112 130 145 124 115 142 135 127 121
336 341 343 344 347 350 355 3 1 2 18 20 17 15 21 7 14 13 54 59 57 56 49 58 81 48 76 93 94 95 102 106 110 107 103 114 129 137 133 128 141 140 128